Weather History for Adrian, MI

Change the Weather History Date:

Saturday, March 30, 2013

  Actual Average Record
Temperature  
Mean Temperature 40 °F -  
Max Temperature 55 °F 52 °F 79 °F (1986)
Min Temperature 26 °F 31 °F 14 °F (1954)
Degree Days  
Heating Degree Days 24    
Moisture  
Dew Point 24 °F    
Average Humidity 52    
Maximum Humidity 78    
Minimum Humidity 29    
Precipitation  
Precipitation 0.00 in - - ()
Sea Level Pressure  
Sea Level Pressure 30.14 in    
Wind  
Wind Speed 5 mph (West)    
Max Wind Speed 12 mph    
Max Gust Speed 20 mph    
Visibility 10 miles    
Events      
Averages and records for this station are not official NWS values.
T = Trace of Precipitation, MM = Missing Value Source: NWS Daily Summary

Daily Weather History Graph

Daily Weather History Graph

Search for Another Location

Airport:

Trip Planner

Search our weather history database for the weather conditions in past years. The results will help you decide how hot, cold, wet, or windy it might be!

Date:

Astronomy

Mar. 30, 2013 Rise Set
Actual Time 7:22 AM EDT 7:59 PM EDT
Civil Twilight 6:54 AM EDT 8:28 PM EDT
Nautical Twilight 6:20 AM EDT 9:01 PM EDT
Astronomical Twilight 5:46 AM EDT 9:35 PM EDT
Moon No Moon Rise 9:13 AM EDT (3/30)
Length of Visible Light 13h 33m
Length of Day
12h 37m
Waning Gibbous, 86% of the Moon is Illuminated
Mar 30
Waning Gibbous
Apr 3
Last Quarter
Apr 10
New
Apr 18
First Quarter
Apr 25
Full

Hourly Weather History & Observations

Time (EDT) Temp. Windchill Dew Point Humidity Pressure Visibility Wind Dir Wind Speed Gust Speed Precip Events Conditions
12:53 AM 36.0 °F 31.1 °F 21.0 °F 55% 30.25 in 10.0 mi North 5.8 mph - N/A   Clear
1:53 AM 33.1 °F 30.0 °F 21.0 °F 61% 30.25 in 10.0 mi North 3.5 mph - N/A   Clear
2:53 AM 28.9 °F 25.2 °F 21.0 °F 72% 30.24 in 10.0 mi North 3.5 mph - N/A   Clear
3:53 AM 33.1 °F 30.0 °F 19.9 °F 59% 30.23 in 10.0 mi NNW 3.5 mph - N/A   Clear
4:53 AM 28.9 °F 25.2 °F 21.0 °F 72% 30.23 in 10.0 mi NW 3.5 mph - N/A   Clear
5:53 AM 28.0 °F - 19.9 °F 72% 30.23 in 10.0 mi Calm Calm - N/A   Clear
6:53 AM 26.1 °F - 19.9 °F 78% 30.24 in 10.0 mi Calm Calm - N/A   Clear
7:53 AM 27.0 °F - 21.0 °F 78% 30.26 in 10.0 mi Calm Calm - N/A   Clear
8:53 AM 33.1 °F - 24.1 °F 70% 30.25 in 10.0 mi Calm Calm - N/A   Clear
9:53 AM 39.9 °F - 26.1 °F 58% 30.22 in 10.0 mi Calm Calm - N/A   Clear
10:53 AM 45.0 °F 41.2 °F 18.0 °F 34% 30.21 in 10.0 mi WSW 6.9 mph - N/A   Clear
11:53 AM 46.9 °F - 17.1 °F 30% 30.20 in 10.0 mi West 9.2 mph - N/A   Clear
12:53 PM 48.9 °F - 18.0 °F 29% 30.18 in 10.0 mi WSW 6.9 mph 17.3 mph N/A   Clear
1:53 PM 52.0 °F - 21.9 °F 31% 30.15 in 10.0 mi West 11.5 mph 16.1 mph N/A   Clear
2:53 PM 53.1 °F - 21.9 °F 30% 30.12 in 10.0 mi SW 10.4 mph - N/A   Clear
3:53 PM 54.0 °F - 21.9 °F 29% 30.09 in 10.0 mi WSW 11.5 mph 19.6 mph N/A   Clear
4:53 PM 55.0 °F - 24.1 °F 30% 30.06 in 10.0 mi SW 11.5 mph 17.3 mph N/A   Clear
5:53 PM 53.1 °F - 25.0 °F 34% 30.04 in 10.0 mi WSW 9.2 mph - N/A   Clear
6:53 PM 52.0 °F - 28.9 °F 41% 30.04 in 10.0 mi SW 10.4 mph - N/A   Clear
7:53 PM 50.0 °F - 30.0 °F 46% 30.03 in 10.0 mi SW 9.2 mph - N/A   Clear
8:53 PM 46.0 °F 43.1 °F 32.0 °F 58% 30.01 in 10.0 mi SW 5.8 mph - N/A   Clear
9:53 PM 44.1 °F 42.5 °F 30.9 °F 60% 29.99 in 10.0 mi South 3.5 mph - N/A   Clear
10:53 PM 41.0 °F - 30.9 °F 67% 29.98 in 10.0 mi Calm Calm - N/A   Clear
11:53 PM 42.1 °F - 30.0 °F 62% 29.96 in 10.0 mi Calm Calm - N/A   Clear